| time (UTC) | temp F | wind direction | speed MPH | gust MPH | rain 1hr in | rain 24hr in | rain mn in | humidity % | barometer mb |
| 20260507021532 | 67 | 240 | 8.0 | 17.0 | 0.00 | 0.00 | 0.00 | 51 | 1015.3 |
| 20260507020032 | 68 | 251 | 11.0 | 16.0 | 0.00 | 0.00 | 0.00 | 50 | 1015.2 |
| 20260507014529 | 68 | 267 | 10.0 | 19.0 | 0.00 | 0.00 | 0.00 | 51 | 1015.1 |
| 20260507013029 | 68 | 270 | 11.0 | 22.0 | 0.00 | 0.00 | 0.00 | 50 | 1015.1 |
| 20260507010032 | 67 | 254 | 12.0 | 24.0 | 0.00 | 0.00 | 0.00 | 51 | 1015.1 |
| 20260507004530 | 67 | 269 | 12.0 | 24.0 | 0.00 | 0.00 | 0.00 | 52 | 1015.1 |
| 20260507003031 | 67 | 276 | 12.0 | 23.0 | 0.00 | 0.00 | 0.00 | 52 | 1015.0 |
| 20260507001531 | 67 | 273 | 12.0 | 24.0 | 0.00 | 0.00 | 0.00 | 53 | 1014.9 |
| 20260507000031 | 66 | 293 | 10.0 | 18.0 | 0.00 | 0.00 | 0.00 | 55 | 1014.9 |
| 20260506234531 | 67 | 300 | 12.0 | 19.0 | 0.00 | 0.00 | 0.00 | 54 | 1014.8 |
| 20260506233032 | 67 | 303 | 10.0 | 20.0 | 0.00 | 0.00 | 0.00 | 53 | 1014.9 |
| 20260506231530 | 67 | 298 | 11.0 | 24.0 | 0.00 | 0.00 | 0.00 | 52 | 1014.9 |
| 20260506230030 | 69 | 287 | 12.0 | 21.0 | 0.00 | 0.00 | 0.00 | 50 | 1015.0 |
| 20260506223031 | 74 | 288 | 12.0 | 22.0 | 0.00 | 0.00 | 0.00 | 47 | 1014.9 |
| 20260506221531 | 75 | 280 | 12.0 | 21.0 | 0.00 | 0.00 | 0.00 | 47 | 1014.9 |
| 20260506220033 | 74 | 275 | 13.0 | 25.0 | 0.00 | 0.00 | 0.00 | 48 | 1014.8 |
| 20260506214532 | 73 | 269 | 15.0 | 25.0 | 0.00 | 0.00 | 0.00 | 49 | 1014.9 |
| 20260506213106 | 73 | 278 | 13.0 | 25.0 | 0.00 | 0.00 | 0.00 | 50 | 1014.9 |
| 20260506210034 | 73 | 288 | 10.0 | 21.0 | 0.00 | 0.00 | 0.00 | 52 | 1015.0 |
| 20260506204531 | 72 | 299 | 11.0 | 21.0 | 0.00 | 0.00 | 0.00 | 52 | 1015.1 |
| 20260506203030 | 72 | 300 | 12.0 | 22.0 | 0.00 | 0.00 | 0.00 | 53 | 1015.4 |
| 20260506201540 | 72 | 286 | 13.0 | 25.0 | 0.00 | 0.00 | 0.00 | 53 | 1015.4 |
| 20260506200029 | 71 | 284 | 11.0 | 23.0 | 0.00 | 0.00 | 0.00 | 54 | 1015.5 |
| 20260506194535 | 70 | 277 | 13.0 | 27.0 | 0.00 | 0.00 | 0.00 | 55 | 1015.5 |
| 20260506193029 | 70 | 275 | 14.0 | 26.0 | 0.00 | 0.00 | 0.00 | 56 | 1015.5 |
| 20260506191532 | 69 | 277 | 13.0 | 27.0 | 0.00 | 0.00 | 0.00 | 58 | 1015.7 |
| 20260506190031 | 68 | 282 | 12.0 | 21.0 | 0.00 | 0.00 | 0.00 | 59 | 1015.7 |
| 20260506184608 | 69 | 264 | 15.0 | 25.0 | 0.00 | 0.00 | 0.00 | 59 | 1015.7 |
| 20260506183030 | 69 | 265 | 14.0 | 26.0 | 0.00 | 0.00 | 0.00 | 59 | 1015.5 |
| 20260506181530 | 68 | 268 | 12.0 | 28.0 | 0.00 | 0.00 | 0.00 | 60 | 1015.6 |
| 20260506173029 | 67 | 275 | 12.0 | 23.0 | 0.00 | 0.00 | 0.00 | 62 | 1015.8 |
| 20260506171530 | 68 | 263 | 11.0 | 23.0 | 0.00 | 0.00 | 0.00 | 62 | 1015.6 |
| 20260506170032 | 67 | 262 | 8.0 | 17.0 | 0.00 | 0.00 | 0.00 | 63 | 1015.6 |
| 20260506164529 | 67 | 267 | 9.0 | 17.0 | 0.00 | 0.00 | 0.00 | 65 | 1015.5 |
| 20260506163030 | 65 | 271 | 8.0 | 12.0 | 0.00 | 0.00 | 0.00 | 67 | 1015.7 |
| 20260506161531 | 64 | 277 | 9.0 | 23.0 | 0.00 | 0.00 | 0.00 | 68 | 1016.1 |
| 20260506154529 | 62 | 269 | 10.0 | 19.0 | 0.00 | 0.00 | 0.00 | 70 | 1015.8 |
| 20260506153029 | 62 | 258 | 10.0 | 18.0 | 0.00 | 0.00 | 0.00 | 72 | 1015.7 |
| 20260506151530 | 62 | 251 | 3.0 | 10.0 | 0.00 | 0.00 | 0.00 | 72 | 1015.7 |
| 20260506150031 | 62 | 255 | 0.0 | 3.0 | 0.00 | 0.00 | 0.00 | 73 | 1015.7 |
| 20260506144646 | 60 | 233 | 1.0 | 3.0 | 0.00 | 0.00 | 0.00 | 78 | 1015.8 |
| 20260506143030 | 57 | 222 | 0.0 | 3.0 | 0.00 | 0.00 | 0.00 | 81 | 1015.8 |
| 20260506141608 | 55 | 196 | 0.0 | 4.0 | 0.00 | 0.00 | 0.00 | 86 | 1015.7 |
| 20260506140106 | 52 | 156 | 2.0 | 5.0 | 0.00 | 0.00 | 0.00 | 88 | 1015.6 |
| 20260506134534 | 52 | 147 | 2.0 | 7.0 | 0.00 | 0.00 | 0.00 | 88 | 1015.5 |
| 20260506133029 | 51 | 156 | 3.0 | 6.0 | 0.00 | 0.00 | 0.00 | 90 | 1015.4 |
| 20260506131532 | 50 | 152 | 2.0 | 3.0 | 0.00 | 0.00 | 0.00 | 89 | 1015.3 |
| 20260506130031 | 50 | 62 | 2.0 | 6.0 | 0.00 | 0.00 | 0.00 | 89 | 1015.3 |
| 20260506123030 | 51 | 83 | 1.0 | 5.0 | 0.00 | 0.00 | 0.00 | 89 | 1015.0 |
| 20260506121533 | 51 | 40 | 1.0 | 3.0 | 0.00 | 0.00 | 0.00 | 89 | 1014.8 |
| 20260506120107 | 51 | 47 | 2.0 | 4.0 | 0.00 | 0.00 | 0.00 | 90 | 1014.8 |
| 20260506113031 | 50 | 93 | 1.0 | 3.0 | 0.00 | 0.00 | 0.00 | 90 | 1014.5 |
| 20260506110030 | 50 | 258 | 0.0 | 4.0 | 0.00 | 0.00 | 0.00 | 88 | 1014.1 |
| 20260506103030 | 52 | 17 | 0.0 | 4.0 | 0.00 | 0.00 | 0.00 | 88 | 1013.9 |
| 20260506101532 | 51 | 46 | 3.0 | 4.0 | 0.00 | 0.00 | 0.00 | 88 | 1013.9 |
| 20260506100048 | 51 | 118 | 0.0 | 3.0 | 0.00 | 0.00 | 0.00 | 86 | 1013.9 |
| 20260506094532 | 52 | 1 | 2.0 | 5.0 | 0.00 | 0.00 | 0.00 | 86 | 1013.9 |
| 20260506093031 | 53 | 340 | 1.0 | 4.0 | 0.00 | 0.00 | 0.00 | 86 | 1013.8 |
| 20260506091529 | 53 | 303 | 2.0 | 6.0 | 0.00 | 0.00 | 0.00 | 86 | 1013.8 |
| 20260506084603 | 53 | 287 | 4.0 | 9.0 | 0.00 | 0.00 | 0.00 | 86 | 1013.6 |
| 20260506081607 | 53 | 301 | 3.0 | 7.0 | 0.00 | 0.00 | 0.00 | 86 | 1013.4 |
| 20260506073031 | 53 | 5 | 2.0 | 4.0 | 0.00 | 0.00 | 0.00 | 84 | 1013.1 |
| 20260506061532 | 55 | 359 | 7.0 | 12.0 | 0.00 | 0.00 | 0.00 | 82 | 1012.6 |
| 20260506050144 | 56 | 354 | 6.0 | 9.0 | 0.00 | 0.00 | 0.00 | 78 | 1012.0 |
| 20260506044532 | 57 | 2 | 5.0 | 8.0 | 0.00 | 0.00 | 0.00 | 77 | 1011.8 |
| 20260506043029 | 57 | 359 | 4.0 | 7.0 | 0.00 | 0.00 | 0.00 | 76 | 1011.6 |
| 20260506041605 | 58 | 348 | 6.0 | 11.0 | 0.00 | 0.00 | 0.00 | 76 | 1011.5 |
| 20260506034529 | 58 | 337 | 6.0 | 12.0 | 0.00 | 0.00 | 0.00 | 73 | 1011.1 |
| 20260506033106 | 60 | 345 | 5.0 | 8.0 | 0.00 | 0.00 | 0.00 | 71 | 1010.8 |
| 20260506031532 | 61 | 2 | 7.0 | 12.0 | 0.00 | 0.00 | 0.00 | 70 | 1010.6 |
| 20260506030032 | 62 | 347 | 7.0 | 13.0 | 0.00 | 0.00 | 0.00 | 69 | 1010.4 |
| 20260506024531 | 62 | 343 | 7.0 | 13.0 | 0.00 | 0.00 | 0.00 | 68 | 1010.2 |
| 20260506023029 | 63 | 358 | 7.0 | 13.0 | 0.00 | 0.00 | 0.00 | 66 | 1010.1 |